TimeEST,TemperatureF,Dew PointF,Humidity,Sea Level PressureIn,VisibilityMPH,Wind Direction,Wind SpeedMPH,Gust SpeedMPH,PrecipitationIn,Events,Conditions,WindDirDegrees,DateUTC
12:54 AM,34.0,15.1,46,29.96,10.0,NNW,3.5,-,N/A,,Clear,340,2013-02-01 05:54:00
1:54 AM,28.9,16.0,58,29.95,10.0,Calm,Calm,-,N/A,,Clear,0,2013-02-01 06:54:00
2:54 AM,28.0,16.0,61,29.96,10.0,South,3.5,-,N/A,,Clear,190,2013-02-01 07:54:00
3:54 AM,30.0,18.0,61,29.90,10.0,SSE,5.8,-,N/A,,Scattered Clouds,160,2013-02-01 08:54:00
4:54 AM,35.1,23.0,61,29.85,10.0,South,6.9,-,N/A,,Overcast,190,2013-02-01 09:54:00
5:54 AM,39.9,24.1,53,29.83,10.0,SSW,12.7,-,N/A,,Overcast,200,2013-02-01 10:54:00
6:54 AM,42.8,26.6,53,29.80,10.0,SW,18.4,27.6,N/A,,Overcast,220,2013-02-01 11:54:00
7:54 AM,43.0,24.1,47,29.82,10.0,WNW,17.3,31.1,N/A,,Unknown,290,2013-02-01 12:54:00
8:52 AM,37.4,26.6,65,29.88,10.0,WNW,16.1,29.9,0.00,,Overcast,300,2013-02-01 13:52:00
8:54 AM,37.0,26.1,65,29.88,10.0,WNW,15.0,29.9,0.00,,Overcast,300,2013-02-01 13:54:00
9:54 AM,33.1,21.9,64,29.96,2.5,NW,21.9,35.7,0.00,Snow,Light Snow,320,2013-02-01 14:54:00
9:56 AM,33.1,21.9,64,29.96,1.8,NW,19.6,35.7,0.00,Snow,Light Snow,320,2013-02-01 14:56:00
10:01 AM,32.0,23.0,69,29.97,0.8,NW,21.9,35.7,0.00,Snow,Light Snow,320,2013-02-01 15:01:00
10:08 AM,32.0,23.0,69,29.98,1.2,NNW,20.7,35.7,0.00,Snow,Light Snow,330,2013-02-01 15:08:00
10:10 AM,32.0,23.0,69,29.97,2.0,NNW,17.3,35.7,0.00,Snow,Light Snow,330,2013-02-01 15:10:00
10:17 AM,34.0,21.9,61,29.98,9.0,NNW,24.2,36.8,0.00,,Overcast,330,2013-02-01 15:17:00
10:54 AM,36.0,14.0,41,29.99,10.0,NNW,17.3,38.0,0.00,,Partly Cloudy,330,2013-02-01 15:54:00
11:24 AM,30.9,18.0,59,30.03,1.2,NNW,32.2,39.1,0.00,Snow,Light Snow,330,2013-02-01 16:24:00
11:27 AM,28.9,18.0,64,30.04,0.8,NNW,25.3,39.1,0.00,Snow,Light Snow,330,2013-02-01 16:27:00
11:30 AM,30.0,19.0,64,30.04,1.0,NNW,20.7,39.1,0.00,Snow,Light Snow,330,2013-02-01 16:30:00
11:34 AM,30.9,19.0,61,30.04,1.8,NW,19.6,33.4,0.00,Snow,Light Snow,320,2013-02-01 16:34:00
11:41 AM,32.0,17.1,54,30.04,9.0,NW,18.4,32.2,0.00,,Overcast,320,2013-02-01 16:41:00
11:54 AM,35.1,16.0,46,30.03,10.0,NW,23.0,33.4,0.00,,Mostly Cloudy,320,2013-02-01 16:54:00
12:54 PM,35.1,9.0,34,30.06,10.0,NW,23.0,42.6,N/A,,Partly Cloudy,320,2013-02-01 17:54:00
1:54 PM,34.0,5.0,30,30.09,10.0,NNW,26.5,35.7,N/A,,Clear,330,2013-02-01 18:54:00
2:54 PM,33.1,5.0,31,30.12,10.0,NW,23.0,28.8,N/A,,Clear,320,2013-02-01 19:54:00
3:54 PM,32.0,3.9,31,30.16,10.0,NW,18.4,31.1,N/A,,Partly Cloudy,320,2013-02-01 20:54:00
4:54 PM,30.0,5.0,35,30.20,10.0,NW,17.3,23.0,N/A,,Partly Cloudy,320,2013-02-01 21:54:00
5:54 PM,28.0,5.0,38,30.23,10.0,NNW,15.0,21.9,N/A,,Clear,330,2013-02-01 22:54:00
6:54 PM,28.0,3.9,36,30.27,10.0,NNW,15.0,23.0,N/A,,Clear,330,2013-02-01 23:54:00
7:54 PM,27.0,5.0,39,30.30,10.0,NNW,6.9,-,N/A,,Clear,340,2013-02-02 00:54:00
8:54 PM,27.0,3.9,37,30.31,10.0,NNW,16.1,-,N/A,,Clear,330,2013-02-02 01:54:00
9:54 PM,26.1,3.9,39,30.33,10.0,NNW,11.5,-,N/A,,Clear,330,2013-02-02 02:54:00
10:54 PM,25.0,3.9,41,30.35,10.0,NNW,9.2,-,N/A,,Clear,340,2013-02-02 03:54:00
11:54 PM,24.1,5.0,44,30.36,10.0,NNW,6.9,-,N/A,,Clear,330,2013-02-02 04:54:00